Time,TemperatureF,DewpointF,PressureIn,WindDirection,WindDirectionDegrees,WindSpeedMPH,WindSpeedGustMPH,Humidity,HourlyPrecipIn,Conditions,Clouds,dailyrainin,SolarRadiationWatts/m^2,SoftwareType,DateUTC
2013-08-03 07:52:00,80.0,73.0,30.02,West,272,2.0,-999.0,79,-99.99,,,-99.99,28.000000,,2013-08-03 12:52:00,
2013-08-03 08:02:00,80.0,73.0,30.02,West,272,3.0,-999.0,79,-99.99,,,-99.99,30.000000,,2013-08-03 13:02:00,
2013-08-03 08:12:00,80.0,73.0,30.02,WNW,295,4.0,-999.0,79,-99.99,,,-99.99,33.000000,,2013-08-03 13:12:00,
2013-08-03 08:22:00,80.0,73.0,30.02,NW,304,4.0,-999.0,79,-99.99,,,-99.99,33.000000,,2013-08-03 13:22:00,
2013-08-03 08:33:00,81.0,74.0,30.03,WNW,299,3.0,-999.0,79,-99.99,,,-99.99,35.000000,,2013-08-03 13:33:00,
2013-08-03 08:43:00,81.0,74.0,30.04,West,272,3.0,-999.0,79,-99.99,,,-99.99,37.000000,,2013-08-03 13:43:00,
2013-08-03 08:52:00,81.0,73.0,30.04,WNW,300,3.0,-999.0,78,-99.99,,,-99.99,42.000000,,2013-08-03 13:52:00,
2013-08-03 09:02:00,81.0,73.0,30.04,WNW,300,3.0,-999.0,78,-99.99,,,-99.99,46.000000,,2013-08-03 14:02:00,
2013-08-03 09:12:00,82.0,74.0,30.04,WNW,296,3.0,-999.0,78,-99.99,,,-99.99,47.000000,,2013-08-03 14:12:00,
2013-08-03 09:22:00,82.0,74.0,30.04,WNW,297,4.0,-999.0,77,-99.99,,,-99.99,51.000000,,2013-08-03 14:22:00,
2013-08-03 09:33:00,83.0,75.0,30.04,WNW,296,4.0,-999.0,76,-99.99,,,-99.99,53.000000,,2013-08-03 14:33:00,
2013-08-03 09:42:00,83.0,74.0,30.04,West,272,5.0,-999.0,75,-99.99,,,-99.99,54.000000,,2013-08-03 14:42:00,
2013-08-03 09:52:00,84.0,75.0,30.04,West,272,5.0,-999.0,74,-99.99,,,-99.99,56.000000,,2013-08-03 14:52:00,
2013-08-03 10:02:00,84.0,74.0,30.04,West,272,6.0,-999.0,73,-99.99,,,-99.99,58.000000,,2013-08-03 15:02:00,
2013-08-03 10:12:00,85.0,75.0,30.04,WNW,299,4.0,-999.0,73,-99.99,,,-99.99,62.000000,,2013-08-03 15:12:00,
2013-08-03 10:23:00,85.0,75.0,30.05,West,272,3.0,-999.0,72,-99.99,,,-99.99,69.000000,,2013-08-03 15:23:00,
2013-08-03 10:32:00,86.0,75.0,30.05,West,272,3.0,-999.0,71,-99.99,,,-99.99,84.000000,,2013-08-03 15:32:00,
2013-08-03 10:43:00,86.0,75.0,30.05,West,272,2.0,-999.0,70,-99.99,,,-99.99,79.000000,,2013-08-03 15:43:00,
2013-08-03 10:53:00,87.0,76.0,30.05,West,272,3.0,-999.0,69,-99.99,,,-99.99,83.000000,,2013-08-03 15:53:00,
2013-08-03 11:02:00,87.0,76.0,30.05,West,272,3.0,-999.0,69,-99.99,,,-99.99,104.000000,,2013-08-03 16:02:00,
2013-08-03 11:12:00,88.0,76.0,30.05,West,272,2.0,-999.0,67,-99.99,,,-99.99,86.000000,,2013-08-03 16:12:00,
2013-08-03 11:23:00,88.0,75.0,30.05,West,272,2.0,-999.0,66,-99.99,,,-99.99,97.000000,,2013-08-03 16:23:00,
2013-08-03 11:33:00,89.0,76.0,30.05,West,272,2.0,5.0,66,0.00,,,0.00,111.000000,,2013-08-03 16:33:00,
2013-08-03 11:43:00,89.0,76.0,30.06,West,272,0.0,4.0,65,0.00,,,0.00,88.000000,,2013-08-03 16:43:00,
2013-08-03 11:53:00,89.0,75.0,30.06,West,272,1.0,-999.0,64,-99.99,,,-99.99,93.000000,,2013-08-03 16:53:00,
2013-08-03 12:03:00,90.0,76.0,30.06,WNW,300,1.0,-999.0,64,-99.99,,,-99.99,91.000000,,2013-08-03 17:03:00,
2013-08-03 12:12:00,90.0,76.0,30.06,WNW,300,1.0,-999.0,64,-99.99,,,-99.99,123.000000,,2013-08-03 17:12:00,
2013-08-03 12:22:00,90.0,76.0,30.05,WNW,300,1.0,-999.0,63,-99.99,,,-99.99,816.000000,,2013-08-03 17:22:00,
2013-08-03 12:32:00,91.0,77.0,30.05,WNW,298,1.0,-999.0,63,-99.99,,,-99.99,838.000000,,2013-08-03 17:32:00,
2013-08-03 12:43:00,91.0,77.0,30.05,WNW,300,1.0,-999.0,63,-99.99,,,-99.99,854.000000,,2013-08-03 17:43:00,
2013-08-03 12:52:00,91.0,77.0,30.04,WNW,298,0.0,-999.0,63,-99.99,,,-99.99,860.000000,,2013-08-03 17:52:00,
2013-08-03 13:02:00,92.0,77.0,30.04,WNW,300,1.0,-999.0,62,-99.99,,,-99.99,875.000000,,2013-08-03 18:02:00,
2013-08-03 13:12:00,92.0,76.0,30.03,WNW,300,1.0,-999.0,60,-99.99,,,-99.99,891.000000,,2013-08-03 18:12:00,
2013-08-03 13:22:00,92.0,77.0,30.03,WNW,296,1.0,-999.0,61,-99.99,,,-99.99,900.000000,,2013-08-03 18:22:00,
2013-08-03 13:32:00,92.0,77.0,30.03,WNW,298,1.0,-999.0,61,-99.99,,,-99.99,907.000000,,2013-08-03 18:32:00,
2013-08-03 13:43:00,92.0,76.0,30.03,WNW,298,1.0,-999.0,59,-99.99,,,-99.99,916.000000,,2013-08-03 18:43:00,
2013-08-03 13:53:00,92.0,75.0,30.03,WNW,297,1.0,-999.0,58,-99.99,,,-99.99,918.000000,,2013-08-03 18:53:00,
2013-08-03 14:02:00,93.0,76.0,30.02,WNW,296,1.0,-999.0,58,-99.99,,,-99.99,923.000000,,2013-08-03 19:02:00,
2013-08-03 14:12:00,93.0,75.0,30.02,WNW,297,1.0,-999.0,57,-99.99,,,-99.99,925.000000,,2013-08-03 19:12:00,
2013-08-03 14:22:00,94.0,76.0,30.02,WNW,296,1.0,-999.0,57,-99.99,,,-99.99,928.000000,,2013-08-03 19:22:00,
2013-08-03 14:32:00,94.0,76.0,30.01,WNW,297,1.0,-999.0,56,-99.99,,,-99.99,896.000000,,2013-08-03 19:32:00,
2013-08-03 14:43:00,94.0,75.0,30.01,WNW,296,1.0,-999.0,55,-99.99,,,-99.99,891.000000,,2013-08-03 19:43:00,
2013-08-03 14:52:00,95.0,76.0,30.01,WNW,300,1.0,-999.0,55,-99.99,,,-99.99,877.000000,,2013-08-03 19:52:00,
2013-08-03 15:32:00,95.0,75.0,30.01,WNW,283,1.0,-999.0,53,-99.99,,,-99.99,837.000000,,2013-08-03 20:32:00,
2013-08-03 15:52:00,96.0,75.0,30.01,WNW,293,2.0,-999.0,52,-99.99,,,-99.99,784.000000,,2013-08-03 20:52:00,
2013-08-03 16:52:00,96.0,75.0,30.00,WNW,290,1.0,-999.0,51,-99.99,,,-99.99,671.000000,,2013-08-03 21:52:00,
2013-08-03 17:22:00,96.0,75.0,29.99,WNW,295,1.0,-999.0,51,-99.99,,,-99.99,573.000000,,2013-08-03 22:22:00,
2013-08-03 17:52:00,96.0,74.0,30.00,WNW,294,0.0,-999.0,49,-99.99,,,-99.99,487.000000,,2013-08-03 22:52:00,
2013-08-03 18:02:00,96.0,73.0,29.99,WNW,294,0.0,-999.0,48,-99.99,,,-99.99,468.000000,,2013-08-03 23:02:00,
2013-08-03 18:12:00,96.0,73.0,29.99,WNW,293,1.0,-999.0,48,-99.99,,,-99.99,427.000000,,2013-08-03 23:12:00,
2013-08-03 18:22:00,96.0,74.0,29.99,WNW,294,0.0,-999.0,49,-99.99,,,-99.99,399.000000,,2013-08-03 23:22:00,
2013-08-03 18:32:00,95.0,72.0,29.98,WNW,294,1.0,-999.0,48,-99.99,,,-99.99,359.000000,,2013-08-03 23:32:00,
2013-08-03 18:42:00,95.0,73.0,29.98,WNW,293,1.0,-999.0,49,-99.99,,,-99.99,322.000000,,2013-08-03 23:42:00,
2013-08-03 18:52:00,95.0,74.0,29.98,WNW,295,1.0,-999.0,51,-99.99,,,-99.99,285.000000,,2013-08-03 23:52:00,
2013-08-03 19:02:00,94.0,73.0,29.98,WNW,294,1.0,-999.0,51,-99.99,,,-99.99,246.000000,,2013-08-04 00:02:00,
2013-08-03 19:12:00,94.0,74.0,29.98,WNW,294,1.0,-999.0,52,-99.99,,,-99.99,193.000000,,2013-08-04 00:12:00,
2013-08-03 19:22:00,94.0,75.0,29.98,WNW,288,0.0,-999.0,54,-99.99,,,-99.99,151.000000,,2013-08-04 00:22:00,
2013-08-03 19:32:00,93.0,74.0,29.98,WNW,294,1.0,-999.0,55,-99.99,,,-99.99,156.000000,,2013-08-04 00:32:00,
2013-08-03 19:42:00,93.0,75.0,29.98,WNW,296,0.0,-999.0,56,-99.99,,,-99.99,130.000000,,2013-08-04 00:42:00,
2013-08-03 20:22:00,92.0,75.0,29.98,WNW,295,0.0,-999.0,57,-99.99,,,-99.99,63.000000,,2013-08-04 01:22:00,
2013-08-03 20:42:00,91.0,73.0,29.98,WNW,292,0.0,-999.0,56,-99.99,,,-99.99,5.000000,,2013-08-04 01:42:00,
2013-08-03 20:53:00,90.0,72.0,29.99,WNW,300,0.0,-999.0,56,-99.99,,,-99.99,0.000000,,2013-08-04 01:53:00,
2013-08-03 21:02:00,90.0,72.0,29.99,WNW,297,0.0,-999.0,56,-99.99,,,-99.99,0.000000,,2013-08-04 02:02:00,
2013-08-03 21:12:00,90.0,72.0,29.99,WNW,296,0.0,-999.0,56,-99.99,,,-99.99,0.000000,,2013-08-04 02:12:00,
2013-08-03 21:22:00,90.0,72.0,29.99,WNW,296,0.0,-999.0,56,-99.99,,,-99.99,0.000000,,2013-08-04 02:22:00,
2013-08-03 21:32:00,90.0,72.0,29.99,WNW,299,0.0,-999.0,56,-99.99,,,-99.99,0.000000,,2013-08-04 02:32:00,
2013-08-03 21:42:00,89.0,73.0,30.01,WNW,293,0.0,-999.0,59,-99.99,,,-99.99,0.000000,,2013-08-04 02:42:00,
2013-08-03 22:02:00,88.0,72.0,30.02,WNW,291,0.0,-999.0,60,-99.99,,,-99.99,0.000000,,2013-08-04 03:02:00,
2013-08-03 22:11:00,88.0,73.0,30.02,WNW,289,0.0,-999.0,61,-99.99,,,-99.99,0.000000,,2013-08-04 03:11:00,
2013-08-03 22:22:00,88.0,73.0,30.02,WNW,291,0.0,-999.0,61,-99.99,,,-99.99,0.000000,,2013-08-04 03:22:00,
2013-08-03 22:32:00,88.0,73.0,30.03,WNW,289,0.0,-999.0,61,-99.99,,,-99.99,0.000000,,2013-08-04 03:32:00,
2013-08-03 22:42:00,88.0,73.0,30.03,WNW,288,1.0,-999.0,62,-99.99,,,-99.99,0.000000,,2013-08-04 03:42:00,
2013-08-03 22:52:00,88.0,73.0,30.03,WNW,288,1.0,-999.0,62,-99.99,,,-99.99,0.000000,,2013-08-04 03:52:00,
2013-08-03 23:02:00,87.0,73.0,30.04,WNW,287,0.0,-999.0,63,-99.99,,,-99.99,0.000000,,2013-08-04 04:02:00,
2013-08-03 23:12:00,87.0,73.0,30.05,WNW,289,0.0,-999.0,64,-99.99,,,-99.99,0.000000,,2013-08-04 04:12:00,
2013-08-03 23:22:00,87.0,73.0,30.05,WNW,289,0.0,-999.0,64,-99.99,,,-99.99,0.000000,,2013-08-04 04:22:00,
2013-08-03 23:32:00,87.0,73.0,30.05,WNW,289,0.0,-999.0,64,-99.99,,,-99.99,0.000000,,2013-08-04 04:32:00,
2013-08-03 23:42:00,87.0,73.0,30.05,WNW,289,0.0,-999.0,64,-99.99,,,-99.99,0.000000,,2013-08-04 04:42:00,
2013-08-03 23:52:00,87.0,73.0,30.05,WNW,289,0.0,-999.0,64,-99.99,,,-99.99,0.000000,,2013-08-04 04:52:00,